Platteville, WI

8:01 PM CDT on April 30, 2017 (GMT -0500)
Platteville Municipal

Weather History for KPVB - December, 2012

Change the Weather History Date:

Friday, December 28, 2012

  Actual Average (KDBQ) Record (KDBQ)
Temperature  
Mean Temperature 26 °F -  
Max Temperature 28 °F 28 °F 63 °F (1984)
Min Temperature 23 °F 14 °F -19 °F (1924)
Degree Days  
Heating Degree Days 40    
Moisture  
Dew Point 22 °F    
Average Humidity 86    
Maximum Humidity 93    
Minimum Humidity 80    
Precipitation  
Precipitation 0.00 in - - ()
Sea Level Pressure  
Sea Level Pressure 30.00 in    
Wind  
Wind Speed 7 mph (ENE)    
Max Wind Speed 9 mph    
Max Gust Speed -    
Averages and records for this station are not official NWS values.
T = Trace of Precipitation, MM = Missing Value Source: NWS Daily Summary

Daily Weather History Graph

Daily Weather History Graph

Search for Another Location

Airport or City:

Trip Planner

Search our weather history database for the weather conditions in past years. The results will help you decide how hot, cold, wet, or windy it might be!

Date:

Astronomy

Dec. 28, 2012 Rise Set
Actual Time 7:31 AM CST 4:35 PM CST
Civil Twilight 6:59 AM CST 5:07 PM CST
Nautical Twilight 6:23 AM CST 5:43 PM CST
Astronomical Twilight 5:49 AM CST 6:17 PM CST
Moon 5:14 PM CST (12/28) 7:24 AM CST (12/28)
Length of Visible Light 10h 08m
Length of Day
9h 04m
Full, 100% of the Moon is Illuminated
Dec 28
Full
Jan 4
Last Quarter
Jan 11
New
Jan 18
First Quarter
Jan 26
Full

Hourly Weather History & Observations

Time (CST) Temp. Windchill Dew Point Humidity Pressure Visibility Wind Dir Wind Speed Gust Speed Precip Events Conditions
12:35 AM 24.8 °F 16.1 °F 21.2 °F 86% 30.08 in - East 8.1 mph - N/A   Overcast
12:55 AM 24.8 °F 15.3 °F 21.2 °F 86% 30.08 in - East 9.2 mph - N/A   Overcast
1:15 AM 24.8 °F 16.9 °F 21.2 °F 86% 30.07 in - East 6.9 mph - N/A   Overcast
1:35 AM 26.6 °F 18.2 °F 21.2 °F 80% 30.07 in - East 8.1 mph - N/A   Overcast
1:55 AM 26.6 °F 17.5 °F 21.2 °F 80% 30.07 in - East 9.2 mph - N/A   Overcast
2:15 AM 26.6 °F 18.2 °F 21.2 °F 80% 30.07 in - East 8.1 mph - N/A   Overcast
2:35 AM 26.6 °F 18.2 °F 21.2 °F 80% 30.07 in - East 8.1 mph - N/A   Overcast
2:55 AM 26.6 °F 18.2 °F 21.2 °F 80% 30.07 in - East 8.1 mph - N/A   Overcast
3:15 AM 26.6 °F 18.2 °F 21.2 °F 80% 30.06 in - East 8.1 mph - N/A   Overcast
3:35 AM 26.6 °F 19.1 °F 21.2 °F 80% 30.05 in - East 6.9 mph - N/A   Overcast
4:15 AM 26.6 °F 17.5 °F 21.2 °F 80% 30.03 in - ENE 9.2 mph - N/A   Overcast
4:35 AM 26.6 °F 18.2 °F 21.2 °F 80% 30.03 in - ENE 8.1 mph - N/A   Overcast
4:55 AM 24.8 °F 16.9 °F 21.2 °F 86% 30.03 in - ENE 6.9 mph - N/A   Overcast
5:15 AM 24.8 °F 16.9 °F 21.2 °F 86% 30.03 in - ENE 6.9 mph - N/A   Overcast
5:35 AM 26.6 °F 19.1 °F 21.2 °F 80% 30.02 in - ENE 6.9 mph - N/A   Overcast
5:55 AM 24.8 °F 16.1 °F 21.2 °F 86% 30.03 in - ENE 8.1 mph - N/A   Overcast
6:15 AM 26.6 °F 20.0 °F 21.2 °F 80% 30.03 in - ENE 5.8 mph - N/A   Overcast
6:35 AM 26.6 °F 19.1 °F 21.2 °F 80% 30.04 in - ENE 6.9 mph - N/A   Overcast
6:55 AM 26.6 °F 18.2 °F 21.2 °F 80% 30.03 in - ENE 8.1 mph - N/A   Overcast
7:35 AM 24.8 °F 15.3 °F 23.0 °F 93% 30.02 in - ENE 9.2 mph - N/A   Unknown
7:55 AM 24.8 °F 16.1 °F 23.0 °F 93% 30.02 in - ENE 8.1 mph - N/A   Unknown
8:55 AM 26.6 °F 19.1 °F 23.0 °F 86% 30.02 in - East 6.9 mph - N/A   Unknown
9:35 AM 26.6 °F 19.1 °F 23.0 °F 86% 30.03 in - East 6.9 mph - N/A   Unknown
9:55 AM 26.6 °F 19.1 °F 23.0 °F 86% 30.02 in - East 6.9 mph - N/A   Overcast
10:35 AM 26.6 °F 20.0 °F 23.0 °F 86% 30.02 in - ESE 5.8 mph - N/A   Unknown
10:55 AM 26.6 °F 19.1 °F 23.0 °F 86% 30.00 in - East 6.9 mph - N/A   Unknown
11:15 AM 26.6 °F 20.0 °F 23.0 °F 86% 29.99 in - East 5.8 mph - N/A   Overcast
11:55 AM 26.6 °F 20.0 °F 23.0 °F 86% 29.97 in - East 5.8 mph - N/A   Unknown
12:15 PM 26.6 °F 21.2 °F 23.0 °F 86% 29.96 in - East 4.6 mph - N/A   Unknown
12:55 PM 28.4 °F 24.6 °F 23.0 °F 80% 29.95 in - East 3.5 mph - N/A   Overcast
1:35 PM 28.4 °F 23.3 °F 24.8 °F 86% 29.92 in - East 4.6 mph - N/A   Overcast
1:55 PM 28.4 °F 23.3 °F 24.8 °F 86% 29.92 in - East 4.6 mph - N/A   Overcast
4:55 PM 26.6 °F 22.6 °F 24.8 °F 93% 29.93 in - ENE 3.5 mph - N/A   Unknown
7:55 PM 23.0 °F 18.4 °F 21.2 °F 93% 29.94 in - North 3.5 mph - N/A   Unknown
8:15 PM 24.8 °F 19.1 °F 21.2 °F 86% 29.94 in - North 4.6 mph - N/A   Overcast
8:55 PM 24.8 °F 19.1 °F 23.0 °F 93% 29.92 in - North 4.6 mph - N/A   Overcast
9:15 PM 24.8 °F 16.9 °F 21.2 °F 86% 29.92 in - NNW 6.9 mph - N/A   Overcast
9:35 PM 23.0 °F 17.0 °F 21.2 °F 93% 29.91 in - North 4.6 mph - N/A   Overcast
9:55 PM 23.0 °F 17.0 °F 21.2 °F 93% 29.91 in - NNW 4.6 mph - N/A   Overcast
10:15 PM 23.0 °F 17.0 °F 21.2 °F 93% 29.91 in - NNW 4.6 mph - N/A   Overcast
10:35 PM 23.0 °F 17.0 °F 21.2 °F 93% 29.91 in - NNW 4.6 mph - N/A   Overcast
10:55 PM 23.0 °F 17.0 °F 21.2 °F 93% 29.91 in - NNW 4.6 mph - N/A   Overcast
11:15 PM 23.0 °F 17.0 °F 21.2 °F 93% 29.92 in - NW 4.6 mph - N/A   Unknown
11:35 PM 23.0 °F 17.0 °F 19.4 °F 86% 29.92 in - NNW 4.6 mph - N/A   Overcast